Location: Rowland
(34.5359°N, 79.2929°W)
Time: 16:27:06
(UTC+00:00)

Tiros 1 - Visible Passes

Search period start: 26 September 2022 00:00
Search period end: 06 October 2022 00:00
Orbit: 629 x 663 km, 48.4° (Epoch: 25 September)

Date Brightness Start Highest point End Pass type
(mag) Time Alt. Az. Time Alt. Az. Time Alt. Az.
26 Sep 9.4 08:35:45 18° N 08:35:45 18° N 08:37:50 10° NNE visible
26 Sep 9.5 10:15:09 10° NNW 10:17:51 15° N 10:20:33 10° NE visible
27 Sep 9.3 09:00:17 16° NNW 09:00:32 16° N 09:03:26 10° NNE visible
27 Sep 9.4 10:40:58 10° NNW 10:44:11 18° NNE 10:47:22 10° NE visible
28 Sep 9.5 09:24:51 12° NNW 09:26:54 15° N 09:29:35 10° NE visible
29 Sep 10.0 08:11:47 12° NNE 08:11:47 12° NNE 08:12:34 10° NNE visible
29 Sep 9.4 09:50:06 10° NNW 09:53:14 17° NNE 09:56:22 10° NE visible
30 Sep 9.6 08:36:23 15° N 08:36:23 15° N 08:38:38 10° NE visible
30 Sep 9.1 10:15:34 10° NNW 10:19:27 24° NNE 10:23:17 10° ENE visible
01 Oct 9.4 09:01:03 15° N 09:02:17 17° N 09:05:21 10° NE visible
01 Oct 8.3 10:40:57 10° NW 10:45:27 41° NNE 10:49:53 10° ESE visible
02 Oct 9.1 09:25:48 15° NNW 09:28:31 23° NNE 09:32:17 10° ENE visible
03 Oct 9.9 08:12:58 14° NNE 08:12:58 14° NNE 08:14:20 10° NE visible
03 Oct 8.4 09:50:37 13° NW 09:54:32 38° NNE 09:58:56 10° E visible
04 Oct 9.2 08:37:53 22° NNE 08:37:53 22° NNE 08:41:16 10° ENE visible
04 Oct 7.2 10:15:34 10° NW 10:20:19 79° NE 10:25:01 10° SE visible
05 Oct 8.4 09:02:57 34° N 09:03:37 36° NNE 09:07:58 10° E visible
05 Oct 7.6 10:41:22 10° WNW 10:45:51 44° SW 10:50:18 10° SSE visible
